Vorticity
-0 -3 -7 -9 -6 -4 -2 -1 -0 2 4 6 6 6 5 6 6 7 8 8 8 8 8 8 8 8 8 8 8 7 7 7 7 7 7 7 7 7 7 7 7 7 7 7 7 7 7 7 7 7 7 7 7 7 7 7 6 6 6 6 5 5 5 5 4 4 4 4 4
1 -2 -4 -6 -2 1 3 3 4 5 6 7 7 6 6 6 6 7 7 8 8 8 8 8 8 8 8 8 8 7 7 7 7 7 7 7 7 7 7 7 7 8 8 8 8 8 8 8 7 7 7 7 7 7 6 6 6 6 5 5 5 5 4 4 4 4 4 3 3
4 1 -2 -3 0 3 5 7 6 6 6 7 7 7 6 6 7 7 7 7 7 7 7 8 8 8 7 8 8 7 7 7 7 7 7 7 7 7 7 7 7 8 8 8 8 7 7 7 7 7 7 6 6 6 6 5 5 5 5 5 4 4 4 4 4 4 4 4 4
11 6 2 0 2 4 7 8 8 7 7 6 6 6 6 7 7 7 7 7 7 7 7 7 7 7 7 7 7 7 7 7 7 7 7 7 7 7 7 7 7 7 7 7 7 7 7 7 6 6 6 6 6 6 5 5 5 5 5 4 4 4 5 5 5 5 5 5 6
22 16 11 7 7 8 9 10 10 9 8 7 7 7 7 7 7 7 7 7 7 7 7 7 7 7 7 7 7 7 7 7 7 6 6 6 6 6 6 6 6 6 6 6 6 6 6 6 6 6 5 5 5 5 5 5 5 5 5 5 6 6 6 6 6 7 7 7 8
30 26 22 18 15 14 14 14 13 12 10 9 8 8 8 7 7 7 7 7 7 7 7 7 7 7 7 7 6 6 6 6 6 6 6 6 6 6 6 6 5 5 5 5 5 5 5 5 5 5 5 5 5 5 6 6 6 6 7 7 8 8 8 9 9 9 10 10 10
28 28 26 24 22 20 19 18 17 16 14 12 11 10 9 9 8 8 8 8 8 8 8 7 7 7 7 7 7 7 6 6 6 6 6 6 6 6 6 6 5 5 5 5 5 5 5 6 6 6 6 6 7 7 8 8 9 9 10 10 11 11 11 12 12 12 12 12 12
22 23 23 23 22 22 21 20 19 18 17 15 14 13 12 11 10 10 10 9 9 9 9 9 9 8 8 8 8 8 8 7 7 7 7 7 7 7 7 7 7 7 7 7 7 7 7 8 8 9 9 10 10 11 11 12 12 13 13 13 13 13 13 13 12 12 11 11 11
18 19 19 20 20 20 20 20 19 18 18 17 16 15 14 13 12 12 11 11 11 10 10 10 10 10 10 10 10 10 10 10 10 10 10 10 9 9 9 9 10 10 10 10 10 11 11 12 12 13 13 13 14 14 14 14 14 14 14 13 12 12 11 10 10 9 9 8 7
18 18 18 18 18 18 18 18 18 18 17 17 16 16 15 14 14 13 13 13 12 12 12 12 12 12 12 12 13 13 13 13 13 13 13 13 13 13 13 13 13 14 14 14 15 15 15 15 15 15 15 15 15 14 14 13 12 11 11 10 9 8 7 7 6 5 5 4 4
18 18 18 18 18 17 17 17 17 17 17 16 16 16 16 15 15 14 14 14 14 14 14 14 14 14 15 15 15 16 16 16 16 17 17 17 17 17 17 17 17 17 17 17 17 17 16 16 15 15 14 13 12 11 10 9 8 7 6 5 5 4 4 3 3 2 2 2 2
19 19 19 18 18 18 17 17 17 17 16 16 16 16 16 16 16 16 16 16 16 16 16 16 17 17 17 18 18 18 18 19 19 19 19 19 19 19 19 18 18 18 17 16 16 15 13 13 12 11 10 8 7 6 5 5 4 4 3 3 2 2 2 2 1 1 1 0 0
19 20 20 19 19 18 18 18 18 17 17 17 17 17 17 17 17 17 17 17 17 18 18 18 18 18 19 19 19 19 19 19 19 19 18 18 18 17 16 16 15 14 13 12 11 10 9 8 7 6 5 4 4 3 3 2 2 2 2 2 2 2 2 2 1 1 1 1 1
19 20 20 20 20 19 19 19 18 18 18 18 18 18 18 18 18 18 18 18 18 19 19 19 18 18 18 18 18 17 17 16 16 15 15 14 13 13 12 11 10 9 8 7 6 5 5 4 3 3 2 2 2 2 2 2 2 2 2 3 3 3 3 3 3 4 4 4 4
18 19 19 20 20 20 20 19 19 19 18 18 18 18 18 18 18 18 18 18 18 18 17 17 16 16 15 14 14 13 13 12 11 10 10 9 9 8 7 6 6 5 4 4 3 3 2 2 2 2 2 2 2 3 3 4 4 5 6 6 7 8 8 9 9 9 9 9 9
16 17 17 18 18 19 19 19 19 18 18 18 18 18 18 18 17 17 16 16 15 14 13 13 12 12 11 10 9 9 8 8 7 7 6 6 5 5 4 4 3 3 2 2 2 2 2 2 2 3 3 4 5 6 7 8 10 11 12 14 15 16 16 16 16 15 15 14 14
13 14 15 15 16 16 17 17 17 17 17 16 16 16 16 15 14 13 13 12 11 10 10 9 9 8 8 7 7 6 6 6 5 5 4 4 4 3 3 3 2 2 2 2 3 3 4 5 6 7 8 9 11 12 14 16 18 20 22 23 23 23 22 21 20 19 18 19 19
11 11 12 12 13 13 13 14 14 14 14 13 13 13 12 11 11 10 9 9 8 8 7 7 7 7 7 6 6 6 5 5 4 4 3 3 3 3 3 3 3 3 4 5 6 7 8 10 12 13 15 17 19 22 24 26 28 29 29 28 27 25 24 23 23 23 24 26 28
9 9 9 10 10 10 11 11 11 11 11 10 10 10 9 8 8 8 8 7 7 7 7 7 7 7 6 6 6 5 4 4 4 3 3 3 4 4 4 5 5 7 8 10 11 13 14 16 18 20 23 25 28 29 30 31 30 29 28 27 26 26 27 28 30 32 34 36 37
9 8 8 8 8 8 8 9 9 9 8 8 8 8 8 7 7 8 8 8 8 8 8 7 7 6 6 5 4 4 4 4 4 4 4 5 5 6 7 8 10 12 13 15 16 18 21 23 26 28 30 30 30 30 29 28 26 26 25 26 27 29 31 34 37 39 41 43 44
9 8 8 8 7 7 7 8 8 8 8 8 8 8 8 8 9 9 9 9 8 8 7 6 5 5 4 4 4 5 5 5 6 6 7 8 9 11 12 13 15 16 18 20 23 25 28 30 31 31 30 28 27 26 25 24 24 25 26 27 29 31 34 36 39 42 44 46 47
10 9 8 8 8 8 8 8 8 8 8 8 9 9 9 9 9 9 9 8 7 6 5 4 4 4 5 5 6 6 7 7 9 10 11 13 14 16 17 18 19 22 24 28 30 31 32 31 28 26 25 24 23 23 23 24 26 28 29 30 31 33 34 37 40 42 44 46 46
10 10 10 9 9 9 9 9 9 9 9 9 9 10 9 9 8 8 7 5 4 4 4 4 5 6 7 8 8 9 10 11 13 15 17 18 19 20 22 23 26 28 30 32 31 28 26 23 21 20 20 20 21 22 23 25 27 29 30 32 33 34 35 36 38 40 41 42 42
11 11 10 10 10 10 10 10 10 10 10 10 9 9 8 7 6 5 4 4 4 4 6 7 9 10 10 10 11 12 13 16 18 20 21 22 23 24 26 28 30 30 28 26 22 20 18 17 17 17 18 18 18 19 20 21 23 24 26 28 30 32 33 34 35 35 36 36 36
11 11 11 10 10 10 10 10 10 10 9 9 8 7 6 5 5 4 4 5 7 8 10 12 12 13 12 13 14 16 17 19 20 21 22 23 25 26 27 28 26 24 21 18 16 16 15 16 16 15 15 14 14 14 14 14 15 16 18 20 22 25 27 29 30 30 30 30 29
11 11 11 10 10 10 10 10 10 9 9 8 7 6 5 5 5 6 7 10 12 13 14 15 14 13 13 13 15 17 19 20 20 21 22 23 25 26 25 23 21 18 16 15 14 14 14 14 13 12 11 11 11 10 10 10 10 10 11 12 14 16 18 20 21 22 23 24 24
12 12 11 11 11 11 11 10 10 9 9 8 7 7 7 8 9 11 13 16 16 16 16 14 13 12 12 13 15 17 18 19 20 21 22 23 23 22 21 19 17 15 13 12 12 12 11 11 10 10 9 9 9 9 8 8 8 8 8 9 9 10 11 12 13 14 16 17 18
13 13 13 13 13 12 12 11 11 10 10 9 10 10 12 13 16 17 18 18 17 15 13 11 10 10 12 15 18 20 21 21 22 22 22 22 20 19 17 15 13 11 10 9 9 10 10 10 10 10 9 9 9 9 9 8 8 8 8 8 8 8 8 8 9 10 10 11 12
15 15 14 14 14 13 13 13 12 12 13 13 14 16 17 19 20 20 18 16 13 11 10 10 11 13 17 21 23 24 24 23 22 21 20 18 16 13 11 10 9 8 8 9 9 10 10 10 10 10 10 10 10 10 10 9 9 9 9 8 8 8 8 8 8 8 8 9 9
16 16 15 15 14 14 14 15 15 16 16 17 18 20 20 20 19 17 14 12 11 11 12 13 16 20 24 26 26 25 24 22 21 18 16 13 10 9 8 7 8 8 9 10 10 11 11 11 11 11 11 11 10 10 10 9 9 9 9 8 8 8 8 8 8 8 8 8 8
14 14 14 14 14 15 15 16 17 18 19 20 20 20 18 17 15 13 13 13 13 15 16 19 23 26 27 26 25 23 21 18 16 13 10 8 8 7 8 8 9 10 11 11 11 12 12 12 12 11 11 10 10 9 9 8 8 8 8 7 7 7 7 7 7 7 7 7 7
12 12 12 13 13 14 14 16 16 18 18 18 18 17 16 15 14 15 15 16 17 19 22 25 27 27 26 23 21 18 15 12 10 8 8 8 8 9 9 10 10 11 11 12 12 12 12 11 11 10 10 9 9 8 8 8 8 7 7 7 7 7 7 7 7 7 7 7 7
10 10 10 10 11 12 13 14 15 16 16 17 18 17 17 17 17 18 20 21 22 24 25 26 25 23 20 16 13 11 9 7 7 7 8 8 9 10 10 10 11 11 11 11 11 11 10 10 9 8 8 8 8 7 7 7 7 7 7 7 7 7 7 6 6 6 7 7 7
12 11 11 11 13 14 14 15 16 17 19 20 20 19 19 20 21 22 22 23 23 23 22 20 18 15 12 10 8 7 7 7 7 8 8 9 9 10 10 10 10 10 10 10 9 9 8 8 7 7 7 7 7 7 7 7 7 7 8 7 7 7 7 6 6 6 7 7 7
18 18 18 18 19 19 20 20 22 24 24 22 21 20 21 21 21 21 20 20 19 18 16 13 11 9 7 7 7 7 7 7 8 8 9 9 9 10 10 10 9 9 8 8 7 7 7 7 7 7 7 7 7 7 7 7 7 7 7 7 7 7 7 6 6 6 7 7 7
27 26 25 24 24 25 26 28 27 26 23 20 20 20 20 19 18 17 15 14 13 11 9 7 7 6 6 6 6 7 7 8 8 9 9 9 9 9 9 8 8 7 7 7 6 6 6 6 6 7 7 7 7 7 7 7 7 7 7 7 7 7 7 6 7 7 7 7 7
31 30 28 27 28 30 30 28 24 21 19 18 17 16 15 13 12 11 10 9 7 6 6 6 6 6 6 6 7 7 8 8 8 8 9 8 8 8 8 7 7 6 6 6 6 6 6 6 7 7 7 7 7 7 7 7 7 7 7 7 7 7 7 7 7 7 7 7 7
34 33 32 31 31 29 26 21 18 16 14 13 11 10 9 8 8 7 6 6 5 5 6 6 6 6 7 7 7 8 8 8 8 8 8 7 7 7 6 6 6 6 6 6 6 6 6 7 7 7 7 7 7 7 7 7 7 7 7 7 7 7 7 7 7 7 7 8 8
38 36 34 30 25 20 16 14 12 10 9 7 7 6 6 6 5 5 5 5 5 5 6 6 6 7 7 7 7 8 7 7 7 7 7 6 6 6 6 5 5 6 6 6 6 6 6 6 6 6 6 7 7 7 7 7 7 7 7 7 7 7 7 7 7 8 8 8 8
37 32 27 20 15 12 9 8 6 5 5 5 5 5 5 5 5 5 5 5 5 5 6 6 7 7 7 7 7 7 7 7 7 6 6 6 5 5 5 5 5 5 6 6 6 6 6 6 6 6 6 6 6 6 6 7 7 7 7 7 7 7 7 7 7 8 8 8 8
27 21 15 10 8 6 5 4 4 4 4 4 4 4 5 5 5 5 5 5 5 6 6 6 7 7 7 7 7 6 6 6 6 6 5 5 5 5 5 5 5 5 5 5 5 5 5 5 5 5 5 5 6 6 6 6 7 7 7 7 7 7 7 8 8 8 8 8 8
Height
5658 5660 5661 5663 5665 5668 5670 5672 5674 5676 5678 5679 5681 5683 5685 5687 5688 5690 5692 5693 5695 5696 5697 5699 5700 5701 5703 5704 5705 5706 5708 5708 5709 5711 5712 5713 5713 5714 5715 5716 5717 5718 5719 5720 5721 5722 5723 5723 5724 5725 5725 5726 5726 5727 5727 5728 5728 5729 5729 5730 5730 5730 5730 5731 5731 5731 5732 5732 5733
5654 5656 5658 5660 5662 5664 5666 5668 5670 5673 5674 5676 5678 5680 5682 5684 5685 5687 5688 5690 5691 5693 5694 5695 5697 5698 5699 5701 5702 5703 5704 5705 5706 5707 5708 5709 5710 5711 5712 5713 5714 5715 5716 5716 5717 5718 5719 5719 5720 5721 5721 5722 5723 5723 5723 5724 5724 5725 5725 5726 5726 5726 5727 5727 5727 5727 5728 5728 5728
5651 5653 5654 5656 5658 5661 5663 5665 5667 5669 5671 5673 5675 5677 5679 5680 5682 5683 5684 5686 5688 5689 5691 5692 5693 5695 5696 5697 5698 5699 5700 5701 5703 5703 5704 5706 5707 5708 5708 5709 5710 5711 5712 5713 5713 5714 5715 5716 5716 5717 5718 5718 5718 5719 5719 5720 5720 5721 5721 5721 5722 5722 5722 5722 5723 5723 5723 5723 5724
5648 5649 5651 5653 5655 5657 5659 5661 5663 5666 5668 5670 5672 5674 5675 5677 5678 5679 5681 5683 5684 5686 5688 5689 5690 5691 5693 5694 5695 5696 5697 5698 5699 5700 5701 5702 5703 5704 5705 5706 5707 5708 5708 5709 5710 5710 5711 5712 5713 5713 5713 5714 5714 5715 5715 5716 5716 5717 5717 5717 5718 5718 5718 5718 5718 5718 5719 5719 5719
5645 5646 5648 5649 5651 5653 5656 5658 5660 5662 5664 5667 5669 5671 5672 5673 5674 5676 5678 5680 5681 5683 5684 5685 5687 5688 5689 5690 5691 5692 5693 5694 5695 5697 5698 5698 5699 5701 5701 5702 5703 5704 5704 5705 5706 5707 5707 5708 5708 5709 5709 5710 5710 5711 5711 5711 5712 5712 5713 5713 5713 5713 5713 5713 5713 5714 5714 5714 5714
5642 5643 5645 5647 5648 5650 5653 5655 5657 5659 5661 5663 5665 5667 5668 5669 5671 5673 5675 5676 5678 5679 5681 5682 5683 5684 5686 5687 5688 5689 5690 5691 5692 5693 5694 5695 5696 5697 5698 5698 5699 5700 5701 5702 5702 5703 5703 5704 5704 5705 5705 5706 5706 5706 5707 5707 5708 5708 5708 5708 5708 5708 5709 5709 5709 5709 5709 5709 5709
5638 5640 5642 5644 5646 5648 5650 5652 5654 5656 5658 5660 5662 5663 5664 5666 5668 5670 5671 5673 5674 5676 5677 5678 5680 5681 5682 5683 5684 5685 5686 5688 5688 5689 5690 5691 5692 5693 5694 5695 5695 5696 5697 5698 5698 5699 5699 5700 5701 5701 5701 5702 5702 5702 5703 5703 5703 5703 5703 5704 5703 5704 5704 5704 5704 5704 5704 5704 5705
5635 5637 5638 5640 5643 5644 5646 5648 5650 5653 5655 5657 5658 5659 5661 5663 5664 5666 5668 5669 5671 5672 5673 5675 5676 5677 5678 5680 5681 5682 5683 5684 5685 5686 5687 5688 5689 5689 5690 5691 5692 5692 5693 5694 5694 5695 5695 5696 5697 5697 5697 5698 5698 5698 5698 5699 5699 5699 5699 5699 5699 5699 5699 5699 5699 5699 5700 5700 5700
5632 5633 5635 5637 5639 5641 5643 5645 5647 5649 5651 5653 5654 5656 5657 5659 5661 5663 5664 5666 5667 5668 5670 5671 5673 5674 5675 5676 5677 5678 5679 5680 5681 5682 5683 5684 5685 5686 5687 5687 5688 5688 5689 5690 5691 5691 5692 5692 5693 5693 5693 5693 5694 5694 5694 5695 5695 5695 5695 5695 5695 5695 5695 5695 5695 5695 5695 5695 5695
5629 5630 5632 5634 5636 5638 5639 5641 5643 5645 5647 5649 5650 5652 5654 5656 5658 5659 5661 5662 5663 5665 5666 5668 5669 5670 5671 5673 5673 5674 5676 5677 5678 5679 5680 5681 5682 5682 5683 5683 5684 5685 5686 5686 5687 5688 5688 5688 5689 5689 5689 5690 5690 5690 5690 5691 5691 5691 5691 5691 5691 5691 5690 5690 5690 5690 5690 5690 5690
5626 5627 5629 5631 5633 5634 5636 5638 5640 5642 5644 5645 5647 5649 5651 5653 5654 5656 5657 5658 5660 5662 5663 5664 5665 5667 5668 5669 5670 5671 5672 5673 5674 5675 5676 5677 5678 5679 5679 5680 5681 5682 5682 5683 5683 5684 5685 5685 5685 5686 5686 5686 5686 5686 5687 5687 5687 5687 5686 5686 5686 5686 5686 5685 5685 5685 5685 5684 5684
5623 5625 5626 5628 5629 5631 5633 5635 5637 5638 5640 5642 5644 5646 5648 5649 5651 5652 5654 5655 5657 5658 5659 5661 5662 5663 5664 5665 5667 5668 5669 5670 5671 5672 5673 5674 5675 5676 5676 5677 5678 5678 5679 5680 5680 5681 5681 5682 5682 5682 5683 5683 5683 5683 5683 5683 5683 5683 5682 5682 5682 5682 5681 5680 5680 5680 5679 5679 5679
5621 5622 5624 5625 5627 5628 5630 5632 5634 5636 5638 5639 5641 5643 5644 5646 5647 5649 5651 5652 5653 5655 5656 5658 5659 5660 5661 5662 5663 5664 5666 5667 5668 5669 5670 5671 5672 5673 5673 5674 5675 5676 5676 5677 5677 5678 5678 5678 5679 5679 5679 5679 5679 5679 5679 5678 5678 5678 5678 5677 5677 5676 5676 5675 5674 5674 5673 5673 5673
5619 5620 5621 5623 5624 5626 5628 5629 5631 5633 5634 5636 5638 5639 5641 5643 5644 5646 5648 5649 5650 5652 5653 5654 5656 5657 5658 5659 5660 5662 5663 5664 5665 5666 5667 5668 5669 5670 5671 5671 5672 5673 5673 5674 5674 5675 5675 5675 5675 5676 5676 5675 5675 5675 5675 5674 5674 5673 5673 5673 5672 5671 5670 5669 5668 5668 5667 5667 5667
5617 5618 5619 5621 5622 5624 5625 5627 5628 5630 5632 5633 5635 5637 5638 5640 5641 5643 5645 5646 5647 5649 5650 5652 5653 5654 5655 5657 5658 5659 5660 5662 5663 5664 5665 5666 5666 5667 5668 5668 5669 5670 5670 5671 5671 5672 5672 5672 5672 5672 5672 5671 5671 5671 5670 5670 5669 5669 5668 5667 5666 5665 5664 5663 5662 5661 5661 5661 5660
5614 5616 5617 5618 5620 5622 5623 5625 5626 5628 5629 5631 5633 5634 5636 5637 5639 5640 5642 5643 5645 5646 5648 5649 5650 5652 5653 5654 5655 5657 5658 5659 5660 5661 5662 5663 5664 5664 5665 5666 5666 5667 5667 5668 5668 5668 5668 5668 5668 5668 5668 5667 5667 5666 5666 5665 5664 5664 5663 5662 5661 5659 5658 5657 5656 5655 5654 5654 5654
5613 5614 5615 5617 5618 5619 5621 5623 5624 5626 5627 5628 5630 5632 5633 5635 5636 5638 5639 5641 5642 5644 5645 5646 5648 5649 5651 5652 5653 5654 5655 5657 5658 5658 5659 5660 5661 5662 5662 5663 5663 5663 5664 5664 5664 5664 5664 5664 5664 5663 5663 5663 5662 5662 5661 5660 5660 5659 5658 5657 5655 5654 5652 5651 5650 5649 5648 5647 5647
5611 5612 5613 5615 5616 5618 5619 5620 5622 5623 5625 5626 5628 5630 5631 5633 5634 5636 5637 5638 5640 5642 5643 5644 5646 5647 5648 5649 5651 5652 5653 5654 5655 5656 5657 5657 5658 5658 5659 5659 5660 5660 5660 5660 5660 5660 5660 5660 5660 5659 5659 5658 5658 5657 5657 5656 5655 5654 5653 5652 5650 5649 5647 5646 5644 5643 5642 5641 5640
5608 5610 5612 5613 5614 5616 5617 5618 5620 5621 5623 5624 5626 5628 5629 5630 5632 5633 5635 5636 5638 5639 5641 5642 5643 5645 5646 5647 5648 5649 5650 5651 5652 5653 5653 5654 5655 5655 5656 5656 5656 5656 5656 5656 5656 5656 5656 5656 5656 5655 5655 5654 5654 5653 5653 5652 5651 5650 5649 5648 5646 5644 5642 5640 5639 5638 5636 5635 5634
5607 5608 5609 5611 5612 5614 5615 5617 5618 5619 5621 5622 5624 5625 5627 5628 5630 5631 5633 5634 5636 5637 5638 5640 5641 5642 5643 5645 5646 5647 5648 5648 5649 5650 5650 5651 5651 5652 5652 5652 5652 5653 5653 5653 5653 5652 5652 5652 5652 5652 5651 5651 5650 5650 5649 5648 5648 5646 5645 5643 5642 5640 5638 5636 5634 5633 5631 5630 5629
5604 5606 5607 5609 5610 5612 5613 5614 5616 5617 5619 5620 5622 5623 5625 5626 5628 5629 5631 5632 5633 5635 5636 5638 5639 5640 5641 5642 5643 5644 5645 5646 5646 5647 5647 5648 5648 5648 5648 5649 5649 5649 5649 5649 5649 5649 5649 5649 5648 5648 5648 5648 5648 5647 5646 5645 5644 5643 5642 5640 5638 5637 5634 5632 5630 5628 5627 5626 5624
5602 5603 5605 5607 5608 5609 5611 5613 5614 5615 5617 5618 5620 5621 5623 5624 5626 5627 5628 5630 5631 5633 5634 5635 5636 5638 5638 5639 5640 5641 5642 5643 5643 5644 5644 5644 5645 5645 5645 5646 5646 5646 5646 5646 5646 5646 5646 5646 5646 5646 5646 5645 5645 5644 5644 5643 5642 5641 5639 5638 5636 5634 5632 5630 5628 5626 5624 5623 5622
5600 5602 5603 5604 5606 5608 5609 5610 5612 5613 5615 5616 5618 5619 5621 5622 5624 5625 5627 5628 5629 5631 5632 5633 5634 5635 5636 5637 5638 5638 5639 5640 5640 5641 5641 5642 5642 5642 5642 5643 5643 5643 5643 5643 5643 5643 5644 5644 5643 5643 5643 5643 5643 5642 5642 5641 5640 5639 5637 5636 5634 5632 5630 5628 5626 5624 5622 5621 5620
5598 5600 5601 5603 5604 5605 5607 5608 5610 5611 5613 5614 5616 5618 5619 5620 5622 5623 5624 5626 5627 5628 5629 5631 5632 5633 5633 5634 5635 5636 5637 5638 5638 5638 5638 5639 5639 5640 5640 5640 5640 5641 5641 5641 5641 5642 5642 5642 5642 5642 5642 5642 5641 5641 5640 5639 5638 5637 5636 5634 5633 5631 5628 5627 5625 5623 5621 5620 5619
5596 5598 5599 5600 5602 5603 5605 5606 5608 5609 5611 5613 5614 5615 5617 5618 5620 5621 5622 5623 5625 5626 5627 5628 5629 5630 5631 5632 5633 5634 5634 5635 5636 5636 5636 5637 5637 5638 5638 5638 5638 5639 5639 5639 5640 5640 5640 5640 5640 5640 5640 5640 5640 5639 5639 5638 5637 5636 5635 5633 5632 5630 5628 5626 5624 5622 5621 5620 5619
5594 5596 5597 5598 5600 5602 5603 5604 5606 5608 5609 5610 5612 5613 5615 5616 5618 5619 5620 5622 5623 5624 5625 5626 5627 5628 5629 5630 5631 5632 5632 5633 5633 5634 5634 5635 5635 5636 5636 5636 5637 5637 5638 5638 5638 5638 5638 5638 5639 5639 5639 5639 5639 5638 5638 5637 5636 5635 5634 5633 5631 5629 5628 5626 5624 5623 5621 5620 5619
5593 5594 5595 5597 5598 5599 5601 5603 5604 5605 5607 5608 5610 5611 5613 5614 5616 5617 5618 5619 5621 5622 5623 5624 5625 5626 5627 5628 5629 5630 5630 5631 5632 5632 5633 5633 5634 5634 5634 5635 5635 5636 5636 5636 5637 5637 5637 5638 5638 5638 5638 5638 5638 5637 5637 5636 5635 5634 5633 5632 5631 5629 5628 5626 5625 5623 5622 5621 5621
5591 5592 5593 5595 5596 5598 5599 5601 5602 5604 5605 5607 5608 5609 5611 5612 5614 5615 5616 5618 5619 5620 5621 5623 5623 5624 5625 5626 5627 5628 5628 5629 5630 5630 5631 5632 5632 5633 5633 5633 5634 5634 5634 5635 5635 5636 5636 5636 5637 5637 5637 5637 5636 5636 5636 5635 5634 5633 5632 5631 5630 5629 5628 5627 5625 5624 5623 5623 5622
5588 5590 5592 5593 5594 5596 5597 5599 5600 5602 5603 5605 5606 5608 5609 5610 5612 5613 5615 5616 5617 5618 5620 5621 5622 5623 5623 5624 5625 5626 5627 5628 5628 5629 5630 5630 5631 5631 5632 5632 5633 5633 5633 5634 5634 5635 5635 5635 5635 5636 5636 5635 5635 5635 5634 5634 5633 5632 5631 5630 5629 5628 5628 5627 5626 5625 5624 5623 5623
5587 5588 5589 5591 5593 5594 5596 5597 5599 5600 5602 5603 5604 5606 5607 5609 5610 5612 5613 5614 5616 5617 5618 5619 5620 5621 5622 5623 5623 5624 5625 5626 5627 5628 5628 5629 5629 5630 5630 5631 5631 5632 5632 5633 5633 5633 5634 5634 5634 5634 5634 5634 5634 5633 5633 5633 5632 5631 5631 5630 5629 5628 5628 5627 5626 5625 5625 5624 5624
5584 5586 5588 5589 5591 5593 5594 5596 5597 5598 5600 5602 5603 5604 5606 5607 5609 5610 5612 5613 5614 5615 5616 5617 5618 5619 5620 5621 5622 5623 5624 5625 5625 5626 5627 5628 5628 5628 5629 5629 5630 5630 5631 5632 5632 5633 5633 5633 5633 5633 5633 5633 5633 5633 5632 5632 5631 5631 5630 5629 5629 5628 5628 5627 5626 5626 5625 5625 5624
5583 5584 5586 5588 5589 5591 5593 5594 5596 5597 5598 5600 5602 5603 5605 5606 5608 5609 5610 5611 5612 5613 5614 5616 5617 5618 5619 5620 5621 5622 5623 5623 5624 5625 5626 5626 5627 5627 5628 5628 5629 5629 5630 5631 5631 5632 5632 5632 5632 5632 5632 5632 5632 5631 5631 5631 5630 5630 5629 5629 5628 5628 5627 5627 5626 5626 5625 5625 5624
5582 5583 5584 5586 5588 5589 5591 5593 5594 5596 5597 5599 5600 5602 5603 5605 5606 5607 5608 5610 5611 5612 5613 5614 5615 5617 5618 5619 5620 5621 5621 5622 5623 5624 5624 5625 5626 5626 5627 5628 5628 5628 5629 5630 5630 5630 5630 5631 5631 5631 5631 5631 5630 5630 5630 5630 5630 5629 5629 5628 5628 5628 5627 5626 5626 5625 5625 5625 5624
5580 5581 5583 5584 5586 5588 5589 5591 5593 5594 5596 5598 5599 5600 5601 5603 5604 5606 5607 5608 5609 5611 5612 5613 5614 5616 5617 5618 5618 5619 5620 5621 5622 5623 5623 5624 5625 5625 5626 5627 5627 5628 5628 5628 5629 5629 5629 5629 5629 5629 5629 5629 5629 5629 5629 5629 5629 5628 5628 5628 5627 5627 5626 5626 5625 5625 5624 5624 5624
5578 5580 5581 5583 5585 5586 5588 5590 5591 5593 5594 5596 5597 5598 5600 5602 5603 5605 5606 5607 5608 5610 5611 5612 5613 5614 5616 5617 5618 5618 5619 5620 5621 5622 5622 5623 5624 5624 5625 5626 5626 5626 5627 5627 5628 5628 5628 5628 5628 5628 5628 5628 5628 5628 5628 5628 5628 5628 5627 5627 5626 5626 5625 5625 5624 5624 5624 5623 5623
5577 5578 5580 5582 5584 5586 5587 5589 5590 5592 5593 5595 5596 5598 5600 5601 5603 5604 5605 5607 5608 5609 5610 5612 5613 5614 5615 5616 5617 5618 5618 5619 5620 5621 5621 5622 5623 5623 5624 5624 5625 5625 5626 5626 5626 5627 5627 5627 5627 5628 5628 5628 5627 5627 5627 5627 5627 5626 5626 5625 5625 5625 5624 5624 5624 5623 5623 5623 5623
5576 5578 5580 5582 5583 5585 5586 5588 5589 5591 5593 5595 5597 5598 5600 5601 5603 5603 5605 5606 5607 5609 5610 5611 5612 5613 5614 5615 5616 5617 5618 5618 5619 5620 5620 5621 5622 5622 5623 5623 5624 5624 5624 5625 5625 5626 5626 5626 5626 5626 5626 5626 5626 5626 5626 5625 5625 5625 5625 5624 5624 5624 5623 5623 5623 5623 5622 5622 5622
5575 5577 5579 5581 5583 5584 5586 5588 5589 5592 5593 5595 5597 5598 5600 5601 5602 5603 5604 5606 5607 5608 5609 5610 5612 5613 5613 5614 5615 5616 5617 5617 5618 5619 5619 5620 5621 5621 5622 5622 5623 5623 5623 5624 5624 5624 5625 5625 5625 5625 5625 5625 5625 5624 5624 5624 5624 5624 5623 5623 5623 5623 5622 5622 5622 5622 5621 5621 5621
5575 5577 5579 5581 5583 5584 5586 5588 5590 5592 5594 5595 5597 5598 5599 5601 5602 5603 5604 5605 5606 5608 5609 5610 5611 5612 5613 5613 5614 5615 5616 5616 5617 5618 5618 5619 5619 5620 5621 5621 5622 5622 5622 5623 5623 5623 5623 5623 5623 5623 5623 5623 5623 5623 5623 5623 5623 5623 5623 5622 5622 5622 5621 5621 5621 5621 5620 5620 5620
5576 5577 5579 5581 5583 5585 5587 5589 5591 5592 5594 5595 5597 5598 5599 5601 5602 5603 5604 5605 5606 5607 5608 5609 5610 5611 5612 5613 5613 5614 5615 5615 5616 5617 5617 5618 5618 5619 5619 5620 5620 5621 5621 5621 5622 5622 5622 5622 5622 5622 5622 5622 5622 5622 5622 5622 5622 5622 5622 5621 5621 5621 5620 5620 5620 5619 5619 5619 5618
5577 5578 5580 5582 5584 5586 5588 5589 5591 5593 5594 5595 5597 5598 5599 5600 5601 5603 5603 5604 5606 5607 5608 5608 5609 5610 5611 5612 5613 5613 5614 5615 5615 5616 5616 5617 5617 5618 5618 5619 5619 5619 5620 5620 5620 5620 5620 5621 5621 5621 5620 5620 5620 5620 5620 5621 5621 5621 5621 5620 5620 5620 5619 5619 5619 5618 5618 5618 5617